Regional Weather Roundup
Issued by NWS

Home | Current Version | Previous Version | Graphics & Text | Print | Product List | Glossary On
Versions: 1 2 3 4 5 6 7 8 9 10 11 12 13 14 15 16 17 18 19 20 21 22 23 24 25 26 27 28 29 30 31 32 33 34 35 36 37 38 39 40 41 42 43 44 45 46 47 48 49 50
000
ASUS43 KIND 291659
RWRIN

WEATHER ROUNDUP FOR INDIANA
NATIONAL WEATHER SERVICE INDIANAPOLIS IN
100 PM EDT FRI MAY 29 2015

NOTE: "FAIR" INDICATES FEW OR NO CLOUDS BELOW 12,000 FEET WITH NO
SIGNIFICANT WEATHER AND/OR OBSTRUCTIONS TO VISIBILITY.

* - STATION DOES NOT REPORT WEATHER SUCH AS PRECIPITATION OR FOG.

+ - STATION NOT QUALITY CONTROLLED BY THE NATIONAL WEATHER SERVICE.
    USE DATA WITH CAUTION...ESPECIALLY DEWPOINT AND RELATIVE
    HUMIDITY OBSERVATIONS.

INZ001>003-010>013-019-020-291800-
NORTHWEST INDIANA

CITY           SKY/WX    TMP DP  RH WIND       PRES   REMARKS
GARY /AIRPORT/ LGT RAIN  81  64  57 S14G28    30.02F
RENSSELAER +   CLOUDY    81  63  54 S15       30.05F

$$

LMZ046-743>745-291800-
SOUTHERN LAKE MICHIGAN

STATION/POSITION TIME  TEMP    WIND        PRES    WAVE
                       AIR SEA DIR/SP/G            HT
                 (UTC) (F)     (DEG/KT/KT) (MB)    (FT)
BURNS HARBOR     1600   79     190/ 12/ 21 1017.3F
MICHIGAN CITY    1600   78     170/ 12/ 16   N/A
5NW MICH CITY    1600   71 57  200/  8/ 10   N/A     1

$$

INZ004-005-014>016-021>024-291800-
NORTH CENTRAL INDIANA

CITY           SKY/WX    TMP DP  RH WIND       PRES   REMARKS
GOSHEN         MOSUNNY   82  64  54 S16       30.08F
SOUTH BEND     PTSUNNY   82  64  54 S14G21    30.06F

$$

INZ006>009-017-018-025>027-291800-
NORTHEAST INDIANA

CITY           SKY/WX    TMP DP  RH WIND       PRES   REMARKS
ANGOLA *+      MOSUNNY   82  77  83 S8        30.10S
FORT WAYNE     PTSUNNY   80  65  59 SW12      30.11F

$$

INZ028-029-035-036-043>045-051>053-291800-
WEST CENTRAL INDIANA

CITY           SKY/WX    TMP DP  RH WIND       PRES   REMARKS
CRAWFORDSVL +  MOSUNNY   80  58  47 S14       30.09F
GREENCASTLE +  MOSUNNY   77  63  61 S10       30.11F
LAFAYETTE      PTSUNNY   81  64  56 S13       30.07F
TERRE HAUTE    MOSUNNY   83  66  56 SW12G22   30.09F

$$

INZ030>032-037>040-046>048-054>057-064-065-291800-
CENTRAL INDIANA

CITY           SKY/WX    TMP DP  RH WIND       PRES   REMARKS
ANDERSON       PTSUNNY   81  59  47 SW12G17   30.14F
COLUMBUS       PTSUNNY   79  66  65 S13       30.13F
GREENWOOD *+   MOSUNNY   81  63  54 SW13G22   30.13F
INDIANAPOLIS   PTSUNNY   80  66  62 SW10      30.10F
-EAGLE CREEK   PTSUNNY   80  65  59 S9        30.09F
KOKOMO *+      MOSUNNY   82  64  54 SW13G18   30.09F
MT COMFORT *+  MOSUNNY   81  55  41 S13       30.12F
SHELBYVILLE    PTSUNNY   83  67  58 S15G23    30.12F

$$

INZ033-034-041-042-049-050-058-059-291800-
EAST CENTRAL INDIANA

CITY           SKY/WX    TMP DP  RH WIND       PRES   REMARKS
MUNCIE         MOSUNNY   82  64  54 S12       30.12F

$$

INZ060-061-067>069-081>083-085>088-291800-
SOUTHWEST INDIANA

CITY           SKY/WX    TMP DP  RH WIND       PRES   REMARKS
EVANSVILLE     PTSUNNY   79  67  66 S10       30.13F
HUNTINGBURG *+   N/A    N/A N/A N/A MISG        N/A

$$

INZ062-063-066-070>080-084-089>092-291800-
SOUTH CENTRAL AND SOUTHEAST INDIANA

CITY           SKY/WX    TMP DP  RH WIND       PRES   REMARKS
BLOOMINGTON    CLOUDY    77  67  71 S10       30.13F
MADISON *+     PTSUNNY   77  63  61 S13       30.18F
SEYMOUR +      PTSUNNY   84  64  51 S14G22    30.14S

$$



USA.gov is the U.S. government's official web portal to all federal, state and local government web resources and services.